CW7104 Weather Reports


time (UTC)temp
C
wind
direction
speed
KPH
gust
KPH
rain 1hr
cm
rain 24hr
cm
rain mn
cm
humidity
%
barometer
mb
20260503222404 21 173 11.3 24.1 0.00 0.00 0.00 36 1013.3
20260503221405 21 188 9.7 22.5 0.00 0.00 0.00 37 1013.5
20260503220904 21 217 3.2 16.1 0.00 0.00 0.00 35 1013.5
20260503220404 21 267 3.2 20.9 0.00 0.00 0.00 36 1013.5
20260503214405 21 246 4.8 32.2 0.00 0.00 0.00 36 1014.0
20260503213904 21 263 8.0 24.1 0.00 0.00 0.00 36 1014.1
20260503213404 21 150 6.4 19.3 0.00 0.00 0.00 38 1014.2
20260503212904 21 215 8.0 24.1 0.00 0.00 0.00 36 1014.4
20260503212404 21 252 8.0 22.5 0.00 0.00 0.00 36 1014.5
20260503211904 21 155 12.9 29.0 0.00 0.00 0.00 36 1014.6
20260503211404 21 247 14.5 25.7 0.00 0.00 0.00 35 1014.7
20260503210906 21 278 1.6 12.9 0.00 0.00 0.00 37 1014.7
20260503210405 21 178 11.3 32.2 0.00 0.00 0.00 36 1014.8
20260503205904 21 185 9.7 20.9 0.00 0.00 0.00 38 1014.9
20260503205404 21 166 8.0 19.3 0.00 0.00 0.00 37 1015.2
20260503204904 21 143 3.2 19.3 0.00 0.00 0.00 38 1015.4
20260503204404 21 172 9.7 25.7 0.00 0.00 0.00 37 1015.5
20260503203404 21 159 9.7 20.9 0.00 0.00 0.00 37 1015.6
20260503202904 21 163 11.3 24.1 0.00 0.00 0.00 37 1015.8
20260503202405 21 159 9.7 25.7 0.00 0.00 0.00 38 1016.0
20260503201404 20 258 9.7 24.1 0.00 0.00 0.00 39 1016.3
20260503200904 20 251 4.8 19.3 0.00 0.00 0.00 39 1016.3
20260503200404 20 287 11.3 29.0 0.00 0.00 0.00 37 1016.4
20260503195904 20 162 3.2 19.3 0.00 0.00 0.00 40 1016.6
20260503195405 20 184 9.7 22.5 0.00 0.00 0.00 39 1016.8
20260503194905 20 170 9.7 19.3 0.00 0.00 0.00 40 1016.9
20260503194405 20 186 12.9 24.1 0.00 0.00 0.00 40 1017.1
20260503193904 20 278 6.4 19.3 0.00 0.00 0.00 41 1017.2
20260503193404 20 326 14.5 35.4 0.00 0.00 0.00 40 1017.2
20260503192905 20 218 4.8 14.5 0.00 0.00 0.00 42 1017.2
20260503192405 20 169 4.8 22.5 0.00 0.00 0.00 41 1017.4
20260503191904 20 146 11.3 33.8 0.00 0.00 0.00 41 1017.3
20260503191405 20 159 11.3 20.9 0.00 0.00 0.00 40 1017.5
20260503190904 20 146 8.0 29.0 0.00 0.00 0.00 41 1017.4
20260503190404 20 192 11.3 22.5 0.00 0.00 0.00 41 1017.6
20260503185905 19 142 9.7 22.5 0.00 0.00 0.00 41 1017.7
20260503185404 20 315 8.0 19.3 0.00 0.00 0.00 42 1017.8
20260503184904 20 238 3.2 19.3 0.00 0.00 0.00 42 1017.8
20260503184404 20 331 1.6 14.5 0.00 0.00 0.00 42 1017.9
20260503183904 19 147 1.6 12.9 0.00 0.00 0.00 43 1018.3
20260503183404 19 137 3.2 16.1 0.00 0.00 0.00 42 1018.3
20260503182904 19 160 8.0 19.3 0.00 0.00 0.00 42 1018.5
20260503182404 18 192 4.8 25.7 0.00 0.00 0.00 43 1018.6
20260503181904 18 155 8.0 20.9 0.00 0.00 0.00 44 1018.7
20260503181405 18 171 11.3 24.1 0.00 0.00 0.00 43 1018.8
20260503180904 18 265 8.0 24.1 0.00 0.00 0.00 42 1018.8
20260503180404 18 162 8.0 20.9 0.00 0.00 0.00 44 1018.8
20260503175904 18 156 11.3 24.1 0.00 0.00 0.00 45 1019.0
20260503174904 18 197 11.3 20.9 0.00 0.00 0.00 45 1019.4
20260503174405 18 165 8.0 20.9 0.00 0.00 0.00 47 1019.5
20260503173904 18 182 9.7 19.3 0.00 0.00 0.00 45 1019.6
20260503173404 18 300 4.8 19.3 0.00 0.00 0.00 47 1019.7
20260503172905 18 146 9.7 29.0 0.00 0.00 0.00 47 1019.7
20260503172404 18 324 4.8 20.9 0.00 0.00 0.00 46 1019.9
20260503171904 18 150 6.4 22.5 0.00 0.00 0.00 47 1020.0
20260503171404 18 359 3.2 16.1 0.00 0.00 0.00 46 1020.1
20260503150904 15 138 4.8 14.5 0.00 0.00 0.00 56 1021.2
20260503131404 8 165 0.0 0.0 0.00 0.00 0.00 82 1021.4
20260503130904 8 157 0.0 0.0 0.00 0.00 0.00 82 1021.3
20260503130404 7 170 0.0 0.0 0.00 0.00 0.00 82 1021.4
20260503110404 3 335 0.0 0.0 0.00 0.00 0.00 82 1020.8
20260503090405 2 335 0.0 0.0 0.00 0.00 0.00 81 1020.8
20260503080905 3 335 0.0 0.0 0.00 0.00 0.00 81 1020.7
20260503080405 3 335 0.0 0.0 0.00 0.00 0.00 81 1020.7
20260503072906 3 335 0.0 0.0 0.00 0.00 0.00 80 1020.7
20260503072405 3 335 0.0 0.0 0.00 0.00 0.00 80 1020.7
20260503071905 3 335 0.0 0.0 0.00 0.00 0.00 80 1020.7
20260503071405 3 335 0.0 0.0 0.00 0.00 0.00 80 1020.6
20260503070905 3 335 0.0 0.0 0.00 0.00 0.00 80 1020.8
20260503070405 3 335 0.0 0.0 0.00 0.00 0.00 80 1020.7
20260503054405 4 335 0.0 0.0 0.00 0.00 0.00 80 1020.9
20260503053905 4 335 0.0 0.0 0.00 0.00 0.00 79 1020.8
20260503053405 4 335 0.0 0.0 0.00 0.00 0.00 79 1020.8
20260503052905 4 335 0.0 0.0 0.00 0.00 0.00 79 1020.9
20260503052404 4 335 0.0 0.0 0.00 0.00 0.00 79 1020.9
20260503051905 5 335 0.0 0.0 0.00 0.00 0.00 79 1020.9
20260503050905 5 334 0.0 0.0 0.00 0.00 0.00 79 1020.9
20260503050405 5 335 0.0 0.0 0.00 0.00 0.00 79 1020.8
20260503045904 5 335 0.0 0.0 0.00 0.00 0.00 79 1020.8
20260503045405 5 335 0.0 0.0 0.00 0.00 0.00 78 1020.8
20260503044905 5 335 0.0 0.0 0.00 0.00 0.00 78 1020.7
20260503044405 5 335 0.0 0.0 0.00 0.00 0.00 78 1020.6
20260503043905 5 334 0.0 0.0 0.00 0.00 0.00 78 1020.7
20260503043405 5 335 0.0 0.0 0.00 0.00 0.00 78 1020.7
20260503042905 5 335 0.0 0.0 0.00 0.00 0.00 78 1020.7
20260503041904 5 335 0.0 0.0 0.00 0.00 0.00 78 1020.6
20260503041406 5 335 0.0 0.0 0.00 0.00 0.00 78 1020.5
20260503040405 5 334 0.0 0.0 0.00 0.00 0.00 77 1020.7
20260503035905 5 335 0.0 0.0 0.00 0.00 0.00 77 1020.6
20260503035405 5 334 0.0 0.0 0.00 0.00 0.00 77 1020.7
20260503034405 5 335 0.0 0.0 0.00 0.00 0.00 76 1020.7
20260503033904 5 335 0.0 0.0 0.00 0.00 0.00 75 1020.7
20260503033405 5 335 0.0 0.0 0.00 0.00 0.00 75 1020.7
20260503032905 6 335 0.0 0.0 0.00 0.00 0.00 75 1020.7
20260503032404 6 334 0.0 0.0 0.00 0.00 0.00 74 1020.6
20260503031905 6 335 0.0 0.0 0.00 0.00 0.00 74 1020.6
20260503031405 6 335 0.0 0.0 0.00 0.00 0.00 73 1020.5
20260503030405 6 335 0.0 0.0 0.00 0.00 0.00 72 1020.5
20260503025905 6 335 0.0 0.0 0.00 0.00 0.00 72 1020.5
20260503025405 6 335 0.0 0.0 0.00 0.00 0.00 72 1020.4
20260503024905 6 335 0.0 0.0 0.00 0.00 0.00 72 1020.4
20260503024405 6 335 0.0 0.0 0.00 0.00 0.00 71 1020.3
20260503023905 7 335 0.0 0.0 0.00 0.00 0.00 71 1020.3
20260503023404 7 335 0.0 0.0 0.00 0.00 0.00 70 1020.3
20260503022905 7 335 0.0 0.0 0.00 0.00 0.00 70 1020.2
20260503021905 7 335 0.0 0.0 0.00 0.00 0.00 69 1020.1
20260503021405 7 335 0.0 0.0 0.00 0.00 0.00 69 1020.0
20260503020405 7 335 0.0 0.0 0.00 0.00 0.00 68 1020.0
20260503014904 8 335 0.0 0.0 0.00 0.00 0.00 66 1019.8
20260503014405 8 335 0.0 0.0 0.00 0.00 0.00 65 1019.8
20260503013904 8 335 0.0 0.0 0.00 0.00 0.00 64 1019.8
20260503013405 8 335 0.0 0.0 0.00 0.00 0.00 64 1019.8
20260503012905 8 335 0.0 0.0 0.00 0.00 0.00 63 1019.7
20260503011905 9 335 0.0 0.0 0.00 0.00 0.00 62 1019.5
20260503011404 9 334 0.0 0.0 0.00 0.00 0.00 61 1019.5
20260503010905 10 335 0.0 0.0 0.00 0.00 0.00 61 1019.4
20260503010405 10 335 0.0 0.0 0.00 0.00 0.00 59 1019.4
20260503005904 10 335 0.0 0.0 0.00 0.00 0.00 59 1019.4
20260503005405 11 335 0.0 0.0 0.00 0.00 0.00 58 1019.4
20260503004904 11 335 0.0 0.0 0.00 0.00 0.00 57 1019.4
20260503004404 11 335 0.0 0.0 0.00 0.00 0.00 56 1019.5
20260503003404 11 335 0.0 0.0 0.00 0.00 0.00 55 1019.4
20260503002905 12 335 0.0 0.0 0.00 0.00 0.00 54 1019.3
20260503001905 12 335 0.0 0.0 0.00 0.00 0.00 53 1019.2
20260503001405 12 335 0.0 0.0 0.00 0.00 0.00 52 1019.1
20260503000905 12 335 0.0 0.0 0.00 0.00 0.00 51 1019.1
20260503000404 13 335 0.0 0.0 0.00 0.00 0.00 50 1019.1
20260502235405 13 334 0.0 0.0 0.00 0.00 0.00 50 1019.0
20260502234405 12 9 0.0 0.0 0.00 0.00 0.00 51 1019.0
20260502233905 12 8 0.0 0.0 0.00 0.00 0.00 52 1019.0
20260502233404 12 8 0.0 0.0 0.00 0.00 0.00 53 1019.0
20260502232904 12 8 0.0 0.0 0.00 0.00 0.00 51 1019.1
20260502232405 12 9 0.0 0.0 0.00 0.00 0.00 51 1019.0
20260502231904 12 25 0.0 0.0 0.00 0.00 0.00 51 1019.1
20260502231404 12 12 0.0 0.0 0.00 0.00 0.00 51 1019.1
20260502230905 12 8 0.0 0.0 0.00 0.00 0.00 52 1019.1
20260502225404 12 8 0.0 8.0 0.00 0.00 0.00 53 1019.0
20260502224904 12 4 0.0 1.6 0.00 0.00 0.00 52 1019.0
20260502224405 12 2 1.6 9.7 0.00 0.00 0.00 52 1018.9
20260502223904 13 9 0.0 0.0 0.00 0.00 0.00 51 1019.0
20260502223404 13 2 1.6 11.3 0.00 0.00 0.00 51 1019.0
20260502222904 13 6 4.8 9.7 0.00 0.00 0.00 50 1019.0